Terminal Aerodrome Forecast
Issued by NWS

Home | Current Version | Previous Version | Text Only | Print | Product List | Glossary On
Versions: 1 2 3 4 5 6 7 8 9 10 11 12 13 14 15 16 17 18 19 20 21 22 23 24 25 26 27 28 29 30 31 32 33 34 35 36 37 38 39 40 41 42 43 44 45 46 47 48 49 50
000
FTAK31 PANC 260801 AAA
TAFASN
TAF AMD
PASN 260801Z 2608/2706 35011KT P6SM SCT015
     FM261000 34012KT 2SM BR OVC004
     FM262100 32015KT P6SM SCT004 OVC010
     FM270300 29008KT 3SM BR OVC005=

USA.gov is the U.S. government's official web portal to all federal, state and local government web resources and services.